Preview of NWS' New Version of Forecast
This preview is not operational and should not be used for support decisions.

Regional Weather Roundup (RWR)

Issued by National Weather Service (NWS)

                            
000
ASUS44 KJAN 240510
RWRMS 

MISSISSIPPI HOURLY WEATHER ROUNDUP
NATIONAL WEATHER SERVICE JACKSON MS
1200 AM CDT FRI MAY 24 2019

NOTE: "FAIR: INDICATES FEW OR NO CLOUDS BELOW 12,000 FEET WITH NO
SIGNIFICANT WEATHER AND/OR OBSTRUCTIONS TO VISIBILITY.

MSZ001>002-007>008-010>013-018>021-025>028-034>036-240600-
NORTHWEST MISSISSIPPI
  
CITY           SKY/WX    TMP DP  RH WIND       PRES   REMARKS
BATESVILLE       N/A     70  68  94 CALM      30.09F                  
CLARKSDALE     CLEAR     73  68  83 SE5       30.08F                  
CLEVELAND      FAIR      75  65  71 SE3       30.08S                  
GREENWOOD      FAIR      73  69  87 CALM      30.09S                  
GREENVILLE     FAIR      73  66  78 SE5       30.07S                  
OLIVE BRANCH     N/A     72  70  94 CALM      30.09F FOG              
OXFORD         FAIR      70  66  88 CALM      30.12S                  
TUNICA           N/A     70  64  83 S5        30.08F                  
WINONA         FAIR      70  70  99 CALM      30.11S                  
$$

MSZ003>006-009-014>017-022>024-029>033-037>039-240600-
NORTHEAST MISSISSIPPI
  
CITY           SKY/WX    TMP DP  RH WIND       PRES   REMARKS
ABERDEEN       FAIR      70  70 100 CALM      30.12F                  
COLUMBUS AFB   FAIR      71  68  90 CALM      30.10F                  
CORINTH        FAIR      70  68  94 CALM      30.11S                  
GOLDN TRIANGLE FAIR      76  68  76 S5        30.12S                  
STARKVILLE     FAIR      70  68  94 CALM      30.12F                  
TUPELO         FAIR      75  67  76 CALM      30.10F                  
$$

MSZ040-058-240600-
CENTRAL MISSISSIPPI
  
CITY           SKY/WX    TMP DP  RH WIND       PRES   REMARKS
JACKSON INTL   FAIR      75  69  81 SE7       30.10F                  
JACKSON HAWKNS FAIR      77  71  82 S6        30.11S                  
MADISON        FAIR      73  72  94 CALM      30.10F                  
MERIDIAN KEY   MOCLDY    76  71  85 MISG      30.12S                  
MERIDIAN NAS   FAIR      75  72  90 CALM      30.12F                  
RAYMOND        FAIR      73  73 100 CALM      30.10S                  
VICKSBURG VKS  CLEAR     77  72  83 S6        30.09F                  
$$

MSZ059>079-240600-
SOUTH MISSISSIPPI
  
CITY           SKY/WX    TMP DP  RH WIND       PRES   REMARKS
BROOKHAVEN     FAIR      72  70  94 CALM      30.13F                  
HATTIESBURG    CLOUDY    77  70  79 SE3       30.12F                  
LAUREL         CLOUDY    77  71  81 SE5       30.12F                  
MCCOMB         FAIR      73  70  90 CALM      30.12F                  
NATCHEZ        FAIR      75  70  84 S8        30.11S                  
PINE BELT      CLOUDY    74  71  91 CALM      30.13F                  
$$

MSZ080>082-240600-
COASTAL MISSISSIPPI
  
CITY           SKY/WX    TMP DP  RH WIND       PRES   REMARKS
BILOXI         FAIR      79  71  75 SE6       30.11F                  
PASCAGOULA     FAIR      72  70  93 CALM      30.12F                  
GULFPORT       FAIR      78  72  81 SE6       30.10F                  
$$

LAZ007>009-015>016-023>026-240600-
NORTHEAST LOUISIANA
  
CITY           SKY/WX    TMP DP  RH WIND       PRES   REMARKS
BASTROP        FAIR      75  70  84 CALM      30.07F                  
TALLULAH/VBURG FAIR      76  70  82 S5        30.09S                  
VIDALIA        FAIR      77  71  81 SE8       30.09S                  
$$